Location: Parc des �les de St-Timoth�e
(45.2924°N, 74.0481°W)
Time: 19:48:58
(UTC-04:00)

ISS - All Passes

Search period start: 29 September 2016 00:00
Search period end: 09 October 2016 00:00
Orbit: 400 x 409 km, 51.6° (Epoch: 30 September)

Date Brightness Start Highest point End Pass type
(mag) Time Alt. Az. Time Alt. Az. Time Alt. Az.
29 Sep - 01:33:34 10° NW 01:36:48 55° NNE 01:40:03 10° ESE night (unlit)
29 Sep - 03:10:21 10° W 03:13:07 25° SW 03:15:53 10° SSE night (unlit)
29 Sep - 19:51:15 10° SSW 19:54:09 30° SE 19:57:04 10° ENE visible
29 Sep - 21:27:22 10° W 21:30:32 48° NNW 21:33:43 10° NE visible
29 Sep - 23:04:42 10° WNW 23:07:31 26° N 23:10:20 10° ENE night (unlit)
30 Sep - 00:41:27 10° NW 00:44:34 39° NNE 00:47:41 10° E night (unlit)
30 Sep - 02:17:57 10° WNW 02:21:06 44° SW 02:24:15 10° SE night (unlit)
30 Sep - 18:59:56 10° S 19:02:10 17° SE 19:04:25 10° E visible
30 Sep - 20:35:05 10° WSW 20:38:19 74° NNW 20:41:36 10° ENE visible
30 Sep - 22:12:18 10° WNW 22:15:10 27° N 22:18:04 10° NE visible
30 Sep - 23:49:18 10° NW 23:52:16 31° NNE 23:55:14 10° ENE night (unlit)
01 Oct - 01:25:43 10° WNW 01:29:00 78° SSW 01:32:17 10° SE night (unlit)
01 Oct - 03:03:43 10° WSW 03:04:58 12° SW 03:06:14 10° SSW night (unlit)
01 Oct - 19:42:57 10° SW 19:46:10 66° SSE 19:49:24 10° ENE visible
01 Oct - 21:19:51 10° W 21:22:50 32° NNW 21:25:50 10° NE visible
01 Oct - 22:57:04 10° NW 22:59:55 27° N 23:02:47 10° ENE night (unlit)
02 Oct - 00:33:32 10° WNW 00:36:49 65° NNE 00:40:04 10° ESE night (unlit)
02 Oct - 02:10:30 10° W 02:13:03 21° SW 02:15:33 10° S night (unlit)
02 Oct - 18:51:02 10° SSW 18:54:03 37° SE 18:57:06 10° ENE daylight
02 Oct - 20:27:24 10° W 20:30:31 42° NNW 20:33:40 10° NE visible
02 Oct - 22:04:44 10° WNW 22:07:33 25° N 22:10:21 10° ENE visible
02 Oct - 23:41:24 10° NW 23:44:33 43° NNE 23:47:43 10° E night (unlit)
03 Oct - 01:17:58 10° WNW 01:21:00 36° SW 01:24:02 10° SSE night (unlit)
03 Oct - 17:59:29 10° S 18:02:01 21° SE 18:04:34 10° E daylight
03 Oct - 19:35:01 10° WSW 19:38:15 63° NNW 19:41:30 10° ENE visible
03 Oct - 21:12:19 10° WNW 21:15:09 26° N 21:18:00 10° NE visible
03 Oct - 22:49:13 10° NW 22:52:14 33° NNE 22:55:15 10° E night (unlit)
04 Oct - 00:25:38 10° WNW 00:28:53 64° SSW 00:32:08 10° SE night (unlit)
04 Oct - 17:08:42 10° SSE 17:10:02 12° SE 17:11:22 10° ESE daylight
04 Oct - 18:42:47 10° SW 18:46:02 80° SSE 18:49:18 10° ENE daylight
04 Oct - 20:19:50 10° WNW 20:22:46 30° NNW 20:25:43 10° NE visible
04 Oct - 21:56:58 10° NW 21:59:51 28° N 22:02:45 10° ENE visible
04 Oct - 23:33:24 10° WNW 23:36:41 77° NNE 23:39:58 10° ESE night (unlit)
05 Oct - 01:10:37 10° W 01:12:50 17° SW 01:15:02 10° S night (unlit)
05 Oct - 17:50:45 10° SW 17:53:52 45° SE 17:57:00 10° ENE daylight
05 Oct - 19:27:20 10° W 19:30:24 38° NNW 19:33:29 10° NE visible
05 Oct - 21:04:38 10° WNW 21:07:27 26° N 21:10:16 10° ENE visible
05 Oct - 22:41:13 10° NW 22:44:25 49° NNE 22:47:37 10° E night (unlit)
06 Oct - 00:17:53 10° WNW 00:20:47 29° SW 00:23:41 10° SSE night (unlit)
06 Oct - 16:59:00 10° SSW 17:01:45 26° SE 17:04:31 10° E daylight
06 Oct - 18:34:53 10° WSW 18:38:04 54° NNW 18:41:18 10° NE daylight
06 Oct - 20:12:13 10° WNW 20:15:01 26° N 20:17:50 10° NE visible
06 Oct - 21:49:01 10° NW 21:52:05 36° NNE 21:55:08 10° E visible
06 Oct - 23:25:28 10° WNW 23:28:40 51° SW 23:31:51 10° SE night (unlit)
07 Oct - 16:07:48 10° S 16:09:43 15° SE 16:11:38 10° E daylight
07 Oct - 17:42:32 10° WSW 17:45:47 85° NNW 17:49:03 10° ENE daylight
07 Oct - 19:19:42 10° WNW 19:22:35 28° N 19:25:30 10° NE visible
07 Oct - 20:56:46 10° NW 20:59:40 29° N 21:02:36 10° ENE visible
07 Oct - 22:33:10 10° WNW 22:36:27 89° SSW 22:39:44 10° ESE night (unlit)
08 Oct - 00:10:45 10° W 00:12:30 14° SW 00:14:15 10° SSW night (unlit)
08 Oct - 16:50:23 10° SW 16:53:34 56° SE 16:56:46 10° ENE daylight
08 Oct - 18:27:09 10° W 18:30:10 34° NNW 18:33:13 10° NE daylight
08 Oct - 20:04:25 10° NW 20:07:14 26° N 20:10:04 10° ENE visible
08 Oct - 21:40:56 10° NW 21:44:10 57° NNE 21:47:23 10° ESE visible
08 Oct - 23:17:44 10° W 23:20:27 24° SW 23:23:08 10° SSE night (unlit)
